• In Spain
  • List of Countries
  • For 7 days
  • Water Temperature
  • Satellite Maps
  • Weather Map
  • Weather Widgets
  • user-avatar
    Login

    Hourly Weather Kirkuk

    Today, 14 November, Wednesday

    Time Temperature Precipitation Wind Pressure Humidity
    00:00 +18°C° 0 mm 1 mps 732 mmHg 50%
    01:00 +18°C° 0 mm 1 mps 732 mmHg 50%
    02:00 +18°C° 0 mm 1 mps 731 mmHg 50%
    03:00 +18°C° 0 mm 1 mps 731 mmHg 51%
    04:00 +16°C° 0 mm 1 mps 731 mmHg 51%
    05:00 +16°C° 0 mm 1 mps 731 mmHg 51%
    06:00 +16°C° 0 mm 1 mps 730 mmHg 52%
    07:00 +18°C° 0 mm 1 mps 730 mmHg 48%
    08:00 +18°C° 0 mm 2 mps 731 mmHg 44%
    09:00 +19°C° 0 mm 2 mps 731 mmHg 41%
    10:00 +20°C° 0 mm 2 mps 730 mmHg 39%
    11:00 +21°C° 0 mm 2 mps 730 mmHg 36%
    12:00 +22°C° 0 mm 3 mps 730 mmHg 34%
    13:00 +22°C° 0 mm 3 mps 730 mmHg 33%
    14:00 +22°C° 0 mm 3 mps 729 mmHg 33%
    15:00 +22°C° 0 mm 4 mps 729 mmHg 32%
    16:00 +21°C° 0 mm 3 mps 729 mmHg 35%
    17:00 +20°C° 0 mm 3 mps 729 mmHg 38%
    18:00 +20°C° 0 mm 2 mps 729 mmHg 41%
    19:00 +19°C° 0 mm 2 mps 729 mmHg 43%
    20:00 +19°C° 0 mm 3 mps 729 mmHg 45%
    21:00 +18°C° 0 mm 3 mps 730 mmHg 47%
    22:00 +18°C° 0 mm 4 mps 730 mmHg 50%
    23:00 +17°C° 0 mm 4 mps 730 mmHg 54%

    Tomorrow, 15 November, Thursday

    Time Temperature Precipitation Wind Pressure Humidity
    00:00 +16°C° 0 mm 5 mps 730 mmHg 58%
    01:00 +17°C° 0 mm 4 mps 730 mmHg 58%
    02:00 +15°C° 0 mm 4 mps 730 mmHg 58%
    03:00 +15°C° 0 mm 4 mps 730 mmHg 58%
    04:00 +16°C° 0 mm 3 mps 731 mmHg 57%
    05:00 +17°C° 0 mm 3 mps 731 mmHg 57%
    06:00 +17°C° 0 mm 2 mps 731 mmHg 57%
    07:00 +17°C° 0 mm 2 mps 731 mmHg 56%
    08:00 +17°C° 0 mm 2 mps 732 mmHg 55%
    09:00 +18°C° 0 mm 2 mps 732 mmHg 54%
    10:00 +18°C° 0 mm 2 mps 732 mmHg 53%
    11:00 +19°C° 0 mm 2 mps 732 mmHg 51%
    12:00 +19°C° 0 mm 2 mps 732 mmHg 50%
    13:00 +19°C° 0.1 mm 2 mps 732 mmHg 51%
    14:00 +19°C° 0.1 mm 2 mps 731 mmHg 51%
    15:00 +19°C° 0.1 mm 2 mps 731 mmHg 52%
    16:00 +19°C° 0.3 mm 2 mps 731 mmHg 54%
    17:00 +18°C° 0.3 mm 2 mps 731 mmHg 57%
    18:00 +18°C° 0.3 mm 2 mps 731 mmHg 59%
    19:00 +18°C° 0.4 mm 2 mps 731 mmHg 61%
    20:00 +17°C° 0.4 mm 2 mps 732 mmHg 63%
    21:00 +17°C° 0.4 mm 2 mps 732 mmHg 65%
    22:00 +17°C° 0.3 mm 2 mps 732 mmHg 67%
    23:00 +17°C° 0.3 mm 2 mps 732 mmHg 68%

    Day after tomorrow, 16 November, Friday

    Time Temperature Precipitation Wind Pressure Humidity
    00:00 +16°C° 0.3 mm 2 mps 732 mmHg 70%
    01:00 +16°C° 0.5 mm 2 mps 732 mmHg 72%
    02:00 +16°C° 0.5 mm 2 mps 732 mmHg 74%
    03:00 +16°C° 0.5 mm 2 mps 732 mmHg 76%
    04:00 +16°C° 0.5 mm 2 mps 732 mmHg 78%
    05:00 +16°C° 0.5 mm 2 mps 732 mmHg 79%
    06:00 +15°C° 0.5 mm 2 mps 732 mmHg 80%
    07:00 +16°C° 0.1 mm 3 mps 733 mmHg 77%
    08:00 +17°C° 0.1 mm 3 mps 733 mmHg 73%
    09:00 +18°C° 0.1 mm 3 mps 733 mmHg 70%
    10:00 +19°C° 0.1 mm 4 mps 733 mmHg 67%
    11:00 +20°C° 0.1 mm 4 mps 733 mmHg 63%
    12:00 +21°C° 0.1 mm 4 mps 733 mmHg 60%
    13:00 +21°C° 0 mm 4 mps 733 mmHg 58%
    14:00 +21°C° 0 mm 4 mps 733 mmHg 56%
    15:00 +22°C° 0 mm 3 mps 732 mmHg 55%
    16:00 +21°C° 0 mm 3 mps 733 mmHg 58%
    17:00 +20°C° 0 mm 3 mps 733 mmHg 61%
    18:00 +20°C° 0 mm 2 mps 733 mmHg 65%
    19:00 +19°C° 0.3 mm 2 mps 733 mmHg 68%
    20:00 +19°C° 0.3 mm 3 mps 734 mmHg 70%
    21:00 +18°C° 0.3 mm 3 mps 734 mmHg 73%
    22:00 +18°C° 0.2 mm 3 mps 734 mmHg 75%
    23:00 +18°C° 0.2 mm 3 mps 734 mmHg 77%

    17 November, Saturday

    Time Temperature Precipitation Wind Pressure Humidity
    00:00 +17°C° 0.2 mm 3 mps 734 mmHg 79%
    01:00 +17°C° 0.3 mm 3 mps 734 mmHg 80%
    02:00 +17°C° 0.3 mm 3 mps 734 mmHg 81%
    03:00 +16°C° 0.3 mm 2 mps 734 mmHg 82%
    04:00 +16°C° 0.3 mm 2 mps 734 mmHg 82%
    05:00 +16°C° 0.3 mm 2 mps 735 mmHg 82%
    06:00 +16°C° 0.3 mm 2 mps 735 mmHg 83%
    07:00 +17°C° 0.1 mm 2 mps 735 mmHg 78%
    08:00 +18°C° 0.1 mm 2 mps 735 mmHg 73%
    09:00 +18°C° 0.1 mm 2 mps 736 mmHg 68%
    10:00 +19°C° 0.1 mm 2 mps 736 mmHg 63%
    11:00 +20°C° 0.1 mm 2 mps 735 mmHg 57%
    12:00 +21°C° 0.1 mm 2 mps 735 mmHg 51%
    13:00 +21°C° 0 mm 2 mps 735 mmHg 50%
    14:00 +21°C° 0 mm 2 mps 735 mmHg 49%
    15:00 +23°C° 0 mm 2 mps 734 mmHg 47%
    16:00 +21°C° 0 mm 2 mps 735 mmHg 51%
    17:00 +20°C° 0 mm 2 mps 735 mmHg 54%
    18:00 +21°C° 0 mm 1 mps 735 mmHg 58%
    19:00 +20°C° 0 mm 1 mps 735 mmHg 59%
    20:00 +20°C° 0 mm 1 mps 735 mmHg 60%
    21:00 +19°C° 0 mm 1 mps 735 mmHg 62%
    22:00 +19°C° 0 mm 1 mps 735 mmHg 63%
    23:00 +18°C° 0 mm 1 mps 735 mmHg 64%

    18 November, Sunday

    Time Temperature Precipitation Wind Pressure Humidity
    00:00 +18°C° 0 mm 1 mps 735 mmHg 66%
    01:00 +18°C° 0 mm 1 mps 735 mmHg 67%
    02:00 +16°C° 0 mm 1 mps 734 mmHg 69%
    03:00 +16°C° 0 mm 1 mps 734 mmHg 71%
    04:00 +15°C° 0 mm 2 mps 734 mmHg 72%
    05:00 +15°C° 0 mm 2 mps 734 mmHg 72%
    06:00 +15°C° 0 mm 2 mps 734 mmHg 73%
    07:00 +16°C° 0 mm 2 mps 734 mmHg 70%
    08:00 +16°C° 0 mm 1 mps 734 mmHg 66%
    09:00 +18°C° 0 mm 1 mps 735 mmHg 63%
    10:00 +18°C° 0 mm 2 mps 734 mmHg 57%
    11:00 +19°C° 0 mm 2 mps 734 mmHg 52%
    12:00 +20°C° 0 mm 3 mps 734 mmHg 46%
    13:00 +20°C° 0 mm 3 mps 734 mmHg 43%
    14:00 +20°C° 0 mm 4 mps 733 mmHg 39%
    15:00 +20°C° 0 mm 4 mps 733 mmHg 36%
    16:00 +19°C° 0 mm 4 mps 733 mmHg 37%
    17:00 +18°C° 0 mm 3 mps 733 mmHg 39%
    18:00 +18°C° 0 mm 2 mps 733 mmHg 41%
    19:00 +17°C° 0 mm 2 mps 733 mmHg 42%
    20:00 +17°C° 0 mm 2 mps 734 mmHg 43%
    21:00 +17°C° 0 mm 2 mps 734 mmHg 44%
    22:00 +16°C° 0 mm 2 mps 734 mmHg 45%
    23:00 +16°C° 0 mm 1 mps 734 mmHg 46%

    19 November, Monday

    Time Temperature Precipitation Wind Pressure Humidity
    00:00 +15°C° 0 mm 1 mps 734 mmHg 47%
    01:00 +15°C° 0 mm 1 mps 733 mmHg 48%
    02:00 +15°C° 0 mm 1 mps 733 mmHg 49%
    03:00 +14°C° 0 mm 1 mps 733 mmHg 50%
    04:00 +14°C° 0 mm 1 mps 733 mmHg 50%
    05:00 +14°C° 0 mm 1 mps 734 mmHg 51%
    06:00 +14°C° 0 mm 1 mps 734 mmHg 52%
    07:00 +15°C° 0 mm 1 mps 734 mmHg 49%
    08:00 +16°C° 0 mm 1 mps 734 mmHg 46%
    09:00 +17°C° 0 mm 2 mps 735 mmHg 44%
    10:00 +18°C° 0 mm 1 mps 735 mmHg 41%
    11:00 +19°C° 0 mm 1 mps 734 mmHg 39%
    12:00 +20°C° 0 mm 1 mps 734 mmHg 36%
    13:00 +20°C° 0 mm 1 mps 734 mmHg 35%
    14:00 +21°C° 0 mm 1 mps 734 mmHg 34%
    15:00 +21°C° 0 mm 1 mps 733 mmHg 33%
    16:00 +20°C° 0 mm 1 mps 733 mmHg 36%
    17:00 +20°C° 0 mm 1 mps 733 mmHg 39%
    18:00 +19°C° 0 mm 1 mps 734 mmHg 42%
    19:00 +19°C° 0 mm 1 mps 734 mmHg 42%
    20:00 +18°C° 0 mm 1 mps 734 mmHg 42%
    21:00 +18°C° 0 mm 1 mps 734 mmHg 42%
    22:00 +17°C° 0 mm 2 mps 734 mmHg 42%
    23:00 +17°C° 0 mm 2 mps 734 mmHg 42%
    Show more